QPF
0.09 0.07 0.07 0.06 0.04 0.03 0.02 0.03 0.06 0.10 0.12 0.14 0.12 0.11 0.12 0.16 0.19 0.16 0.14 0.15 0.15 0.16 0.15 0.12 0.10 0.12 0.17 0.21 0.21 0.19 0.15 0.09 0.07 0.06 0.06 0.05 0.05 0.04 0.04 0.04 0.04 0.03 0.02
0.12 0.09 0.09 0.07 0.06 0.05 0.03 0.03 0.06 0.10 0.10 0.10 0.10 0.09 0.10 0.14 0.14 0.14 0.16 0.15 0.14 0.13 0.13 0.12 0.10 0.09 0.09 0.14 0.19 0.19 0.17 0.14 0.10 0.09 0.09 0.08 0.06 0.04 0.03 0.04 0.04 0.03 0.03
0.13 0.10 0.08 0.07 0.08 0.06 0.04 0.03 0.05 0.09 0.10 0.09 0.10 0.08 0.08 0.12 0.15 0.08 0.09 0.12 0.13 0.13 0.11 0.11 0.11 0.08 0.07 0.07 0.11 0.16 0.17 0.15 0.12 0.08 0.07 0.07 0.06 0.04 0.03 0.03 0.04 0.04 0.03
0.12 0.13 0.08 0.07 0.07 0.07 0.05 0.04 0.05 0.08 0.10 0.11 0.09 0.08 0.06 0.08 0.12 0.08 0.05 0.06 0.09 0.12 0.13 0.11 0.10 0.10 0.08 0.06 0.07 0.10 0.13 0.14 0.13 0.10 0.07 0.06 0.05 0.04 0.03 0.03 0.03 0.05 0.04
0.11 0.13 0.10 0.06 0.05 0.07 0.07 0.05 0.05 0.06 0.09 0.11 0.11 0.08 0.06 0.07 0.09 0.08 0.06 0.06 0.07 0.09 0.11 0.13 0.13 0.12 0.10 0.07 0.05 0.07 0.10 0.12 0.11 0.10 0.08 0.06 0.05 0.05 0.04 0.03 0.03 0.05 0.06
0.10 0.12 0.11 0.05 0.03 0.06 0.06 0.08 0.06 0.05 0.06 0.09 0.12 0.12 0.10 0.08 0.09 0.09 0.06 0.07 0.08 0.08 0.08 0.10 0.12 0.13 0.12 0.10 0.06 0.05 0.07 0.09 0.11 0.10 0.08 0.06 0.06 0.04 0.04 0.03 0.03 0.04 0.06
0.09 0.11 0.09 0.05 0.03 0.05 0.06 0.07 0.08 0.06 0.05 0.05 0.08 0.10 0.10 0.10 0.09 0.09 0.07 0.07 0.08 0.09 0.09 0.09 0.09 0.10 0.11 0.10 0.07 0.04 0.04 0.05 0.08 0.11 0.10 0.07 0.06 0.05 0.05 0.05 0.04 0.05 0.05
0.08 0.11 0.08 0.05 0.04 0.04 0.06 0.06 0.07 0.08 0.06 0.04 0.05 0.07 0.08 0.08 0.08 0.08 0.07 0.06 0.06 0.08 0.09 0.10 0.10 0.10 0.10 0.10 0.07 0.04 0.04 0.04 0.05 0.07 0.10 0.11 0.08 0.06 0.06 0.06 0.06 0.07 0.07
0.07 0.09 0.07 0.05 0.04 0.04 0.06 0.07 0.08 0.08 0.08 0.06 0.04 0.05 0.06 0.07 0.07 0.07 0.08 0.08 0.08 0.09 0.10 0.11 0.11 0.11 0.10 0.10 0.08 0.06 0.05 0.05 0.05 0.07 0.08 0.09 0.11 0.09 0.07 0.06 0.07 0.07 0.08
0.07 0.08 0.08 0.06 0.05 0.05 0.06 0.07 0.10 0.11 0.11 0.10 0.08 0.06 0.06 0.07 0.07 0.08 0.09 0.09 0.10 0.11 0.12 0.12 0.12 0.12 0.11 0.09 0.08 0.07 0.06 0.05 0.05 0.07 0.09 0.07 0.07 0.08 0.08 0.07 0.06 0.06 0.06
0.06 0.08 0.07 0.06 0.06 0.05 0.05 0.07 0.09 0.12 0.13 0.11 0.10 0.09 0.09 0.09 0.08 0.07 0.07 0.08 0.08 0.09 0.11 0.12 0.11 0.11 0.11 0.11 0.10 0.07 0.06 0.05 0.04 0.05 0.08 0.07 0.05 0.05 0.07 0.08 0.09 0.08 0.07
0.05 0.06 0.06 0.05 0.06 0.07 0.06 0.07 0.08 0.09 0.10 0.10 0.10 0.10 0.10 0.10 0.10 0.09 0.07 0.06 0.06 0.07 0.09 0.11 0.11 0.10 0.11 0.11 0.11 0.09 0.07 0.05 0.04 0.05 0.07 0.08 0.06 0.05 0.07 0.09 0.09 0.09 0.08
0.07 0.07 0.06 0.06 0.06 0.07 0.07 0.07 0.07 0.06 0.06 0.07 0.07 0.08 0.07 0.07 0.09 0.09 0.08 0.08 0.07 0.07 0.08 0.10 0.11 0.11 0.11 0.12 0.11 0.11 0.09 0.06 0.05 0.05 0.07 0.08 0.07 0.06 0.06 0.09 0.09 0.09 0.09
0.06 0.06 0.07 0.07 0.07 0.08 0.07 0.06 0.05 0.04 0.04 0.05 0.05 0.05 0.05 0.05 0.07 0.08 0.08 0.07 0.06 0.07 0.07 0.08 0.09 0.09 0.10 0.10 0.10 0.11 0.11 0.07 0.06 0.07 0.07 0.08 0.08 0.07 0.06 0.06 0.09 0.09 0.09
0.05 0.07 0.09 0.08 0.09 0.09 0.07 0.05 0.04 0.04 0.04 0.04 0.04 0.05 0.05 0.05 0.06 0.07 0.08 0.07 0.05 0.05 0.05 0.06 0.07 0.07 0.08 0.09 0.09 0.08 0.08 0.07 0.07 0.07 0.07 0.07 0.06 0.06 0.06 0.05 0.06 0.08 0.09
0.04 0.05 0.06 0.07 0.07 0.09 0.08 0.05 0.03 0.03 0.03 0.03 0.04 0.05 0.06 0.07 0.07 0.08 0.08 0.07 0.06 0.05 0.05 0.06 0.07 0.07 0.07 0.09 0.08 0.07 0.06 0.06 0.06 0.06 0.06 0.05 0.04 0.05 0.06 0.06 0.06 0.06 0.07
0.05 0.05 0.05 0.05 0.07 0.08 0.09 0.06 0.04 0.04 0.04 0.04 0.05 0.05 0.07 0.07 0.07 0.08 0.08 0.07 0.07 0.06 0.06 0.06 0.07 0.07 0.07 0.08 0.08 0.07 0.06 0.06 0.06 0.05 0.05 0.04 0.04 0.04 0.05 0.06 0.07 0.06 0.06
0.04 0.04 0.04 0.05 0.07 0.08 0.10 0.09 0.05 0.05 0.05 0.06 0.06 0.06 0.07 0.07 0.08 0.09 0.09 0.08 0.07 0.06 0.05 0.05 0.06 0.06 0.06 0.06 0.06 0.06 0.06 0.07 0.07 0.07 0.06 0.04 0.04 0.04 0.05 0.06 0.06 0.06 0.05
0.04 0.04 0.04 0.05 0.06 0.09 0.11 0.13 0.08 0.06 0.05 0.06 0.05 0.05 0.05 0.06 0.07 0.08 0.08 0.08 0.08 0.08 0.07 0.06 0.06 0.06 0.06 0.07 0.06 0.06 0.05 0.06 0.06 0.06 0.05 0.04 0.04 0.04 0.05 0.05 0.05 0.05 0.05
0.03 0.04 0.04 0.05 0.07 0.09 0.10 0.11 0.11 0.07 0.06 0.06 0.05 0.04 0.04 0.05 0.06 0.07 0.07 0.06 0.06 0.07 0.07 0.06 0.06 0.07 0.06 0.06 0.06 0.06 0.05 0.05 0.05 0.05 0.05 0.04 0.04 0.04 0.04 0.03 0.04 0.04 0.04
0.02 0.03 0.04 0.05 0.05 0.06 0.07 0.07 0.10 0.10 0.06 0.05 0.05 0.04 0.04 0.04 0.05 0.05 0.05 0.05 0.05 0.05 0.05 0.06 0.05 0.05 0.06 0.06 0.05 0.05 0.05 0.06 0.05 0.04 0.04 0.04 0.04 0.04 0.04 0.04 0.03 0.03 0.04
0.02 0.03 0.04 0.05 0.05 0.04 0.05 0.06 0.06 0.07 0.07 0.05 0.05 0.05 0.05 0.04 0.04 0.04 0.05 0.05 0.05 0.05 0.05 0.05 0.05 0.04 0.04 0.05 0.04 0.04 0.05 0.06 0.07 0.06 0.04 0.03 0.04 0.04 0.03 0.03 0.04 0.04 0.04
0.03 0.03 0.04 0.05 0.05 0.04 0.04 0.05 0.05 0.05 0.07 0.06 0.05 0.04 0.05 0.03 0.04 0.05 0.05 0.05 0.05 0.05 0.05 0.05 0.04 0.04 0.03 0.03 0.03 0.04 0.05 0.05 0.06 0.07 0.06 0.04 0.04 0.04 0.03 0.03 0.03 0.04 0.03
0.05 0.05 0.05 0.04 0.05 0.05 0.05 0.05 0.05 0.05 0.06 0.05 0.05 0.05 0.04 0.04 0.05 0.05 0.05 0.05 0.05 0.04 0.04 0.04 0.03 0.03 0.03 0.02 0.02 0.03 0.04 0.04 0.05 0.06 0.06 0.05 0.04 0.03 0.03 0.02 0.02 0.03 0.03
0.05 0.05 0.05 0.04 0.06 0.06 0.06 0.05 0.04 0.04 0.05 0.05 0.05 0.05 0.05 0.04 0.04 0.05 0.05 0.05 0.04 0.04 0.04 0.04 0.03 0.03 0.02 0.02 0.03 0.03 0.03 0.04 0.04 0.04 0.06 0.05 0.04 0.04 0.03 0.02 0.02 0.02 0.03
0.05 0.05 0.05 0.05 0.07 0.07 0.06 0.05 0.04 0.03 0.03 0.04 0.04 0.05 0.05 0.04 0.03 0.03 0.04 0.04 0.04 0.04 0.04 0.04 0.03 0.03 0.03 0.03 0.03 0.03 0.03 0.04 0.05 0.05 0.05 0.05 0.04 0.03 0.02 0.02 0.02 0.02 0.02
MSLP
1016.38 1016.24 1015.90 1015.39 1014.75 1014.05 1013.38 1012.80 1012.36 1012.09 1011.97 1011.97 1012.04 1012.15 1012.25 1012.33 1012.39 1012.44 1012.50 1012.61 1012.78 1013.01 1013.32 1013.69 1014.09 1014.50 1014.89 1015.26 1015.58 1015.84 1016.04 1016.19 1016.27 1016.30 1016.28 1016.21 1016.11 1015.99 1015.87 1015.77 1015.71 1015.71 1015.75
1016.81 1016.75 1016.46 1015.97 1015.33 1014.60 1013.88 1013.24 1012.76 1012.45 1012.29 1012.26 1012.30 1012.36 1012.40 1012.39 1012.34 1012.26 1012.21 1012.21 1012.29 1012.46 1012.74 1013.09 1013.50 1013.92 1014.33 1014.70 1015.02 1015.28 1015.48 1015.62 1015.71 1015.75 1015.76 1015.73 1015.68 1015.60 1015.52 1015.44 1015.39 1015.38 1015.41
1017.00 1017.02 1016.81 1016.37 1015.75 1015.02 1014.29 1013.64 1013.13 1012.80 1012.62 1012.57 1012.58 1012.59 1012.56 1012.47 1012.31 1012.12 1011.94 1011.83 1011.81 1011.91 1012.13 1012.46 1012.84 1013.25 1013.65 1014.02 1014.33 1014.58 1014.77 1014.93 1015.05 1015.15 1015.21 1015.26 1015.28 1015.26 1015.24 1015.19 1015.16 1015.14 1015.16
1016.95 1017.06 1016.95 1016.58 1016.02 1015.33 1014.62 1013.97 1013.47 1013.12 1012.93 1012.86 1012.83 1012.79 1012.70 1012.52 1012.26 1011.96 1011.68 1011.45 1011.34 1011.35 1011.50 1011.77 1012.12 1012.49 1012.87 1013.21 1013.51 1013.76 1013.98 1014.16 1014.34 1014.51 1014.66 1014.80 1014.91 1014.98 1015.02 1015.02 1015.00 1014.98 1014.97
1016.75 1016.97 1016.96 1016.70 1016.22 1015.60 1014.93 1014.30 1013.80 1013.44 1013.23 1013.12 1013.05 1012.95 1012.79 1012.53 1012.18 1011.79 1011.40 1011.08 1010.86 1010.79 1010.86 1011.06 1011.34 1011.67 1012.01 1012.33 1012.62 1012.87 1013.11 1013.35 1013.59 1013.84 1014.10 1014.34 1014.55 1014.71 1014.81 1014.86 1014.85 1014.82 1014.79
1016.51 1016.84 1016.95 1016.81 1016.43 1015.89 1015.27 1014.67 1014.16 1013.79 1013.53 1013.37 1013.24 1013.08 1012.84 1012.50 1012.08 1011.60 1011.12 1010.71 1010.41 1010.25 1010.23 1010.35 1010.56 1010.83 1011.12 1011.40 1011.68 1011.94 1012.21 1012.49 1012.81 1013.15 1013.50 1013.84 1014.14 1014.39 1014.55 1014.63 1014.64 1014.61 1014.55
1016.35 1016.80 1017.02 1017.00 1016.72 1016.26 1015.69 1015.11 1014.60 1014.18 1013.87 1013.64 1013.43 1013.19 1012.88 1012.47 1011.98 1011.43 1010.88 1010.40 1010.01 1009.77 1009.67 1009.69 1009.82 1010.01 1010.24 1010.48 1010.72 1010.98 1011.27 1011.60 1011.98 1012.40 1012.83 1013.25 1013.64 1013.95 1014.16 1014.28 1014.31 1014.28 1014.20
1016.34 1016.88 1017.22 1017.30 1017.12 1016.72 1016.20 1015.63 1015.09 1014.62 1014.24 1013.93 1013.64 1013.32 1012.94 1012.47 1011.92 1011.32 1010.72 1010.17 1009.72 1009.39 1009.20 1009.12 1009.16 1009.25 1009.40 1009.58 1009.78 1010.03 1010.32 1010.68 1011.10 1011.56 1012.06 1012.55 1012.99 1013.35 1013.61 1013.76 1013.82 1013.80 1013.74
1016.48 1017.11 1017.53 1017.69 1017.58 1017.24 1016.74 1016.16 1015.60 1015.08 1014.63 1014.24 1013.87 1013.48 1013.04 1012.52 1011.93 1011.29 1010.66 1010.06 1009.55 1009.14 1008.85 1008.68 1008.60 1008.59 1008.64 1008.74 1008.88 1009.09 1009.36 1009.72 1010.16 1010.65 1011.18 1011.70 1012.19 1012.59 1012.89 1013.09 1013.18 1013.21 1013.19
1016.72 1017.41 1017.88 1018.09 1018.02 1017.71 1017.23 1016.65 1016.06 1015.50 1014.99 1014.54 1014.11 1013.67 1013.19 1012.64 1012.03 1011.38 1010.72 1010.09 1009.52 1009.04 1008.66 1008.37 1008.18 1008.05 1007.99 1007.99 1008.05 1008.19 1008.43 1008.76 1009.18 1009.67 1010.21 1010.75 1011.26 1011.70 1012.05 1012.29 1012.44 1012.53 1012.58
1016.98 1017.68 1018.18 1018.40 1018.35 1018.05 1017.57 1017.00 1016.39 1015.81 1015.28 1014.79 1014.34 1013.87 1013.38 1012.83 1012.21 1011.56 1010.89 1010.24 1009.62 1009.07 1008.60 1008.21 1007.89 1007.64 1007.46 1007.34 1007.31 1007.37 1007.54 1007.82 1008.21 1008.68 1009.20 1009.75 1010.27 1010.74 1011.13 1011.44 1011.67 1011.84 1011.96
1017.16 1017.85 1018.32 1018.53 1018.46 1018.17 1017.70 1017.14 1016.55 1015.97 1015.45 1014.97 1014.52 1014.07 1013.58 1013.05 1012.45 1011.81 1011.14 1010.47 1009.82 1009.20 1008.65 1008.16 1007.72 1007.35 1007.05 1006.83 1006.69 1006.66 1006.75 1006.97 1007.30 1007.73 1008.23 1008.76 1009.29 1009.79 1010.23 1010.60 1010.90 1011.16 1011.37
1017.20 1017.84 1018.26 1018.43 1018.34 1018.04 1017.59 1017.06 1016.51 1015.98 1015.50 1015.06 1014.65 1014.23 1013.77 1013.27 1012.70 1012.08 1011.42 1010.73 1010.05 1009.39 1008.77 1008.19 1007.66 1007.18 1006.77 1006.44 1006.21 1006.09 1006.09 1006.24 1006.50 1006.88 1007.34 1007.86 1008.39 1008.90 1009.38 1009.80 1010.18 1010.51 1010.80
1017.09 1017.65 1018.00 1018.11 1017.99 1017.69 1017.27 1016.79 1016.31 1015.85 1015.44 1015.07 1014.71 1014.33 1013.92 1013.45 1012.91 1012.31 1011.66 1010.97 1010.28 1009.58 1008.91 1008.27 1007.66 1007.11 1006.61 1006.19 1005.87 1005.67 1005.59 1005.65 1005.85 1006.17 1006.58 1007.06 1007.58 1008.09 1008.59 1009.06 1009.48 1009.86 1010.21
1016.85 1017.33 1017.59 1017.64 1017.49 1017.20 1016.82 1016.41 1016.01 1015.64 1015.31 1015.00 1014.70 1014.38 1014.00 1013.56 1013.04 1012.46 1011.82 1011.14 1010.44 1009.73 1009.03 1008.36 1007.71 1007.10 1006.55 1006.07 1005.68 1005.40 1005.25 1005.23 1005.36 1005.60 1005.96 1006.39 1006.87 1007.37 1007.87 1008.35 1008.79 1009.19 1009.55
1016.54 1016.93 1017.11 1017.10 1016.94 1016.67 1016.34 1016.00 1015.68 1015.39 1015.14 1014.90 1014.65 1014.36 1014.00 1013.57 1013.07 1012.49 1011.86 1011.19 1010.50 1009.80 1009.11 1008.43 1007.77 1007.15 1006.57 1006.04 1005.60 1005.27 1005.05 1004.96 1005.00 1005.18 1005.46 1005.83 1006.25 1006.71 1007.18 1007.64 1008.06 1008.45 1008.80
1016.22 1016.52 1016.64 1016.59 1016.42 1016.18 1015.90 1015.62 1015.38 1015.17 1014.97 1014.77 1014.55 1014.26 1013.91 1013.48 1012.97 1012.40 1011.78 1011.13 1010.46 1009.79 1009.13 1008.48 1007.84 1007.23 1006.64 1006.10 1005.63 1005.24 1004.96 1004.80 1004.77 1004.86 1005.06 1005.35 1005.70 1006.10 1006.51 1006.92 1007.30 1007.64 1007.94
1015.94 1016.18 1016.24 1016.17 1016.00 1015.78 1015.56 1015.34 1015.15 1014.98 1014.82 1014.63 1014.40 1014.10 1013.73 1013.28 1012.75 1012.18 1011.57 1010.95 1010.32 1009.71 1009.10 1008.49 1007.90 1007.32 1006.75 1006.21 1005.72 1005.30 1004.96 1004.73 1004.62 1004.62 1004.73 1004.93 1005.21 1005.52 1005.86 1006.20 1006.52 1006.80 1007.04
1015.71 1015.90 1015.93 1015.85 1015.70 1015.51 1015.32 1015.14 1014.99 1014.83 1014.67 1014.47 1014.20 1013.87 1013.46 1012.97 1012.44 1011.86 1011.28 1010.69 1010.12 1009.56 1009.02 1008.48 1007.95 1007.41 1006.87 1006.34 1005.84 1005.39 1005.01 1004.72 1004.53 1004.45 1004.48 1004.59 1004.78 1005.01 1005.27 1005.54 1005.79 1006.00 1006.18
1015.51 1015.66 1015.69 1015.61 1015.48 1015.31 1015.15 1015.00 1014.85 1014.69 1014.50 1014.25 1013.94 1013.56 1013.11 1012.60 1012.05 1011.48 1010.93 1010.39 1009.88 1009.39 1008.92 1008.45 1007.98 1007.49 1006.99 1006.48 1005.97 1005.50 1005.08 1004.74 1004.49 1004.34 1004.28 1004.32 1004.43 1004.60 1004.79 1004.99 1005.17 1005.33 1005.46
1015.30 1015.44 1015.46 1015.40 1015.29 1015.15 1015.00 1014.85 1014.69 1014.50 1014.27 1013.98 1013.62 1013.19 1012.70 1012.17 1011.62 1011.08 1010.56 1010.08 1009.63 1009.22 1008.82 1008.41 1008.00 1007.56 1007.08 1006.59 1006.09 1005.60 1005.16 1004.78 1004.48 1004.28 1004.17 1004.15 1004.20 1004.31 1004.44 1004.59 1004.73 1004.85 1004.94
1015.05 1015.19 1015.22 1015.18 1015.09 1014.96 1014.82 1014.66 1014.47 1014.24 1013.97 1013.63 1013.23 1012.76 1012.26 1011.73 1011.20 1010.69 1010.22 1009.79 1009.41 1009.05 1008.71 1008.36 1007.99 1007.58 1007.14 1006.66 1006.17 1005.68 1005.22 1004.82 1004.50 1004.27 1004.13 1004.07 1004.09 1004.15 1004.26 1004.37 1004.48 1004.57 1004.64
1014.74 1014.88 1014.94 1014.91 1014.84 1014.72 1014.56 1014.38 1014.17 1013.90 1013.59 1013.21 1012.78 1012.31 1011.80 1011.29 1010.80 1010.33 1009.91 1009.54 1009.21 1008.90 1008.60 1008.29 1007.95 1007.56 1007.13 1006.67 1006.19 1005.71 1005.26 1004.86 1004.54 1004.30 1004.15 1004.08 1004.07 1004.12 1004.20 1004.29 1004.38 1004.46 1004.51
1014.38 1014.54 1014.60 1014.60 1014.52 1014.40 1014.24 1014.03 1013.78 1013.49 1013.14 1012.75 1012.31 1011.85 1011.37 1010.90 1010.45 1010.03 1009.66 1009.33 1009.03 1008.75 1008.47 1008.17 1007.84 1007.46 1007.05 1006.60 1006.14 1005.68 1005.25 1004.88 1004.58 1004.35 1004.20 1004.13 1004.13 1004.16 1004.23 1004.31 1004.38 1004.44 1004.48
1014.00 1014.17 1014.25 1014.24 1014.17 1014.04 1013.86 1013.62 1013.34 1013.02 1012.66 1012.26 1011.84 1011.40 1010.97 1010.54 1010.14 1009.77 1009.44 1009.14 1008.85 1008.58 1008.29 1007.99 1007.65 1007.27 1006.87 1006.44 1006.00 1005.58 1005.19 1004.85 1004.58 1004.38 1004.26 1004.20 1004.19 1004.22 1004.27 1004.32 1004.37 1004.41 1004.43
1013.65 1013.82 1013.90 1013.90 1013.81 1013.66 1013.44 1013.18 1012.87 1012.53 1012.17 1011.78 1011.39 1011.00 1010.61 1010.23 1009.88 1009.55 1009.24 1008.94 1008.65 1008.36 1008.05 1007.72 1007.36 1006.98 1006.58 1006.17 1005.77 1005.39 1005.05 1004.76 1004.54 1004.38 1004.27 1004.22 1004.21 1004.22 1004.24 1004.27 1004.29 1004.29 1004.28
Thickness
5544 5546 5548 5551 5555 5559 5561 5563 5566 5570 5574 5576 5579 5581 5583 5586 5589 5591 5593 5595 5596 5597 5599 5600 5601 5601 5602 5603 5603 5601 5602 5602 5603 5602 5602 5603 5606 5607 5609 5609 5609 5610 5610
5536 5539 5540 5542 5544 5547 5550 5552 5555 5560 5564 5566 5568 5570 5573 5576 5578 5581 5583 5584 5586 5587 5589 5590 5592 5593 5594 5595 5595 5595 5594 5593 5595 5595 5594 5595 5598 5600 5603 5603 5603 5603 5603
5526 5529 5532 5534 5535 5537 5539 5543 5545 5550 5552 5554 5557 5560 5562 5564 5566 5570 5572 5574 5576 5577 5578 5581 5582 5583 5585 5587 5588 5589 5588 5586 5586 5589 5590 5590 5593 5593 5595 5596 5597 5596 5596
5518 5521 5524 5526 5527 5528 5530 5532 5535 5538 5541 5543 5547 5551 5553 5554 5557 5560 5562 5564 5565 5567 5569 5572 5574 5575 5577 5579 5580 5581 5581 5581 5580 5580 5582 5584 5586 5586 5587 5589 5589 5590 5589
5509 5512 5515 5517 5518 5518 5520 5521 5525 5528 5530 5533 5537 5540 5543 5544 5547 5549 5552 5554 5556 5558 5560 5563 5565 5567 5569 5571 5572 5572 5573 5575 5575 5575 5576 5575 5575 5576 5578 5580 5581 5581 5583
5501 5503 5505 5508 5508 5509 5510 5511 5513 5516 5519 5523 5527 5530 5532 5534 5537 5539 5542 5545 5547 5549 5551 5554 5556 5558 5560 5561 5564 5565 5566 5567 5569 5569 5571 5571 5571 5570 5570 5572 5573 5574 5575
5489 5492 5494 5496 5497 5498 5500 5502 5503 5506 5510 5513 5516 5521 5523 5525 5528 5530 5532 5535 5537 5540 5543 5545 5548 5551 5552 5553 5555 5557 5558 5560 5561 5563 5564 5566 5567 5567 5565 5566 5565 5565 5566
5479 5481 5483 5483 5485 5488 5490 5492 5495 5498 5501 5503 5507 5510 5513 5515 5517 5520 5523 5526 5529 5531 5534 5537 5540 5542 5544 5545 5547 5548 5550 5551 5553 5555 5556 5557 5558 5559 5560 5559 5558 5557 5558
5470 5471 5473 5474 5475 5477 5480 5482 5486 5489 5492 5494 5497 5500 5502 5505 5507 5510 5513 5516 5519 5522 5525 5528 5530 5533 5535 5536 5538 5540 5542 5543 5545 5547 5548 5549 5550 5551 5552 5552 5553 5553 5553
5461 5462 5463 5465 5466 5469 5471 5473 5476 5480 5483 5485 5487 5490 5492 5495 5498 5500 5503 5506 5510 5512 5516 5519 5521 5524 5526 5528 5529 5531 5532 5534 5536 5538 5540 5541 5542 5543 5543 5544 5545 5546 5546
5452 5453 5454 5456 5456 5458 5460 5463 5466 5470 5474 5476 5478 5480 5483 5485 5488 5490 5493 5496 5500 5503 5506 5509 5512 5514 5517 5519 5521 5522 5524 5526 5528 5530 5531 5533 5535 5535 5535 5536 5537 5538 5537
5444 5444 5446 5447 5447 5448 5450 5453 5457 5461 5464 5466 5469 5471 5473 5476 5479 5481 5483 5486 5490 5493 5496 5500 5503 5506 5508 5510 5512 5514 5516 5518 5520 5522 5523 5524 5526 5528 5528 5529 5530 5530 5530
5436 5437 5438 5439 5439 5440 5442 5446 5449 5452 5455 5458 5460 5462 5465 5467 5470 5472 5474 5477 5479 5483 5487 5491 5493 5496 5499 5502 5504 5506 5508 5510 5511 5513 5515 5517 5519 5520 5521 5521 5523 5522 5522
5427 5429 5430 5431 5433 5434 5436 5438 5440 5444 5447 5449 5451 5453 5455 5458 5460 5462 5464 5467 5469 5473 5477 5480 5483 5486 5489 5492 5496 5498 5500 5502 5503 5506 5508 5510 5513 5513 5513 5514 5515 5514 5513
5420 5421 5421 5423 5425 5426 5428 5430 5432 5436 5439 5441 5443 5444 5446 5448 5451 5452 5454 5457 5459 5463 5466 5470 5473 5476 5479 5484 5487 5490 5492 5494 5495 5498 5500 5502 5505 5507 5508 5508 5508 5507 5506
5412 5413 5414 5415 5416 5418 5420 5422 5425 5428 5430 5432 5433 5435 5437 5439 5441 5443 5445 5447 5451 5454 5457 5460 5464 5467 5472 5476 5479 5481 5483 5486 5488 5490 5493 5495 5496 5498 5501 5502 5502 5501 5500
5404 5405 5405 5406 5407 5409 5412 5414 5417 5420 5422 5423 5425 5426 5428 5430 5431 5434 5436 5438 5442 5445 5448 5451 5455 5459 5463 5467 5470 5472 5475 5478 5481 5483 5485 5487 5488 5490 5491 5492 5493 5493 5493
5397 5396 5396 5397 5400 5402 5405 5407 5410 5412 5413 5414 5415 5417 5419 5421 5422 5424 5427 5429 5433 5436 5439 5443 5447 5450 5455 5459 5462 5464 5466 5470 5473 5476 5478 5479 5480 5482 5483 5484 5483 5483 5484
5388 5387 5388 5389 5391 5394 5397 5399 5401 5403 5404 5405 5406 5408 5410 5412 5413 5416 5419 5421 5424 5428 5431 5434 5438 5443 5447 5450 5454 5456 5458 5461 5464 5467 5469 5471 5473 5476 5477 5476 5475 5475 5475
5381 5381 5382 5383 5384 5386 5389 5391 5393 5394 5395 5396 5397 5399 5401 5403 5405 5407 5410 5412 5416 5419 5423 5426 5430 5434 5438 5442 5446 5449 5451 5453 5456 5458 5460 5463 5466 5468 5469 5469 5469 5468 5467
5375 5375 5375 5376 5377 5379 5381 5382 5384 5386 5387 5388 5390 5391 5393 5394 5397 5399 5401 5404 5407 5411 5414 5418 5422 5426 5430 5434 5438 5441 5442 5444 5448 5451 5452 5454 5457 5459 5461 5462 5462 5462 5461
5369 5369 5369 5370 5371 5372 5373 5375 5376 5377 5379 5380 5382 5383 5385 5387 5390 5391 5393 5396 5399 5402 5405 5409 5413 5417 5421 5424 5428 5432 5435 5437 5440 5442 5444 5446 5448 5450 5452 5453 5454 5454 5453
5362 5363 5363 5364 5365 5366 5366 5367 5369 5370 5371 5372 5373 5375 5377 5379 5381 5383 5386 5388 5391 5394 5397 5401 5405 5408 5411 5415 5420 5423 5426 5429 5431 5434 5436 5438 5440 5441 5442 5444 5445 5444 5444
5356 5356 5356 5357 5358 5359 5360 5360 5362 5363 5364 5365 5366 5367 5369 5371 5373 5375 5378 5380 5382 5385 5388 5392 5396 5399 5402 5406 5410 5413 5417 5420 5422 5424 5427 5429 5431 5432 5433 5434 5434 5435 5436
5351 5350 5350 5350 5351 5352 5354 5355 5355 5357 5357 5358 5359 5360 5362 5363 5365 5367 5368 5371 5373 5376 5380 5384 5387 5390 5395 5399 5403 5406 5409 5411 5414 5416 5417 5418 5420 5421 5422 5423 5425 5426 5428
5346 5345 5345 5345 5345 5346 5347 5348 5349 5350 5350 5351 5352 5353 5354 5355 5357 5359 5361 5363 5366 5370 5373 5376 5379 5382 5387 5391 5395 5399 5402 5404 5407 5408 5409 5409 5410 5412 5413 5415 5416 5417 5419